Weather reports worldwide

Advertisment
Tyndrum, United Kingdom (99020): temperature & dewpoint: 20.03.2019 19:00:00 - 26.03.2019 19:00:00 (GMT)Tyndrum, United Kingdom (99020): precipitation: 20.03.2019 19:00:00 - 26.03.2019 19:00:00 (GMT)
Date & Time tt [°C] td [°C] rr [mm]
26.03.2019 19:00:00 7,9 5,9 -
26.03.2019 18:00:00 8,0 6,1 0,0
26.03.2019 17:00:00 8,4 6,1 0,0
26.03.2019 16:00:00 8,3 6,3 0,2
26.03.2019 15:00:00 8,1 6,6 0,2
26.03.2019 14:00:00 8,1 5,8 0,0
26.03.2019 13:00:00 8,1 5,3 0,0
26.03.2019 12:00:00 8,4 5,0 0,0
26.03.2019 11:00:00 8,4 4,4 0,0
26.03.2019 10:00:00 7,6 5,0 0,0
26.03.2019 09:00:00 7,3 5,0 0,0
26.03.2019 08:00:00 6,5 4,4 0,0
26.03.2019 07:00:00 5,7 3,6 0,0
26.03.2019 06:00:00 5,6 3,1 0,0
26.03.2019 05:00:00 5,0 3,5 0,0
26.03.2019 04:00:00 5,2 3,6 0,6
26.03.2019 03:00:00 5,8 4,2 0,2
26.03.2019 02:00:00 5,9 4,0 0,0
26.03.2019 01:00:00 5,5 3,9 0,0
26.03.2019 00:00:00 5,1 3,3 0,0
25.03.2019 23:00:00 5,9 3,8 0,0
25.03.2019 22:00:00 6,3 4,4 0,0
25.03.2019 21:00:00 6,4 4,3 0,0
25.03.2019 20:00:00 6,3 3,1 0,0
25.03.2019 19:00:00 6,8 2,8 0,0
25.03.2019 18:00:00 7,6 2,1 0,0
25.03.2019 17:00:00 8,8 1,2 0,0
25.03.2019 16:00:00 8,8 1,9 0,0
25.03.2019 15:00:00 9,1 1,8 0,0
25.03.2019 14:00:00 8,5 2,0 0,0
25.03.2019 13:00:00 8,4 2,4 0,0
25.03.2019 12:00:00 8,3 1,5 0,0
25.03.2019 11:00:00 6,9 2,1 0,0
25.03.2019 10:00:00 6,3 1,8 0,0
25.03.2019 09:00:00 4,6 0,9 0,0
25.03.2019 08:00:00 3,0 1,1 0,0
25.03.2019 07:00:00 1,7 0,3 0,0
25.03.2019 06:00:00 1,2 -0,2 0,0
25.03.2019 05:00:00 1,2 -0,5 0,0
25.03.2019 04:00:00 2,4 -0,6 0,0
25.03.2019 03:00:00 2,4 -0,2 0,0
25.03.2019 02:00:00 3,9 0,3 0,0
25.03.2019 01:00:00 3,0 0,2 0,0
25.03.2019 00:00:00 3,9 0,7 0,0
24.03.2019 23:00:00 3,9 0,6 0,2
24.03.2019 22:00:00 3,9 0,8 0,0
24.03.2019 21:00:00 3,1 1,1 0,0
24.03.2019 20:00:00 3,8 -0,7 0,2
24.03.2019 19:00:00 3,4 1,7 0,0
24.03.2019 18:00:00 3,1 1,9 1,4
24.03.2019 17:00:00 4,5 2,5 0,4
24.03.2019 16:00:00 4,9 1,8 0,2
24.03.2019 15:00:00 5,6 2,0 0,2
24.03.2019 14:00:00 6,9 1,6 0,0
24.03.2019 13:00:00 7,5 4,5 1,0
24.03.2019 12:00:00 7,5 3,4 0,8
24.03.2019 11:00:00 8,1 4,4 0,2
24.03.2019 10:00:00 5,7 4,2 1,2
24.03.2019 09:00:00 5,2 3,9 1,0
24.03.2019 08:00:00 3,8 2,6 3,4
24.03.2019 07:00:00 5,4 2,4 0,2
24.03.2019 06:00:00 4,7 1,9 0,4
24.03.2019 05:00:00 4,1 2,2 0,2
24.03.2019 04:00:00 3,5 1,7 1,0
24.03.2019 03:00:00 4,5 1,5 0,2
24.03.2019 02:00:00 4,0 1,7 0,4
24.03.2019 01:00:00 3,8 1,8 0,6
24.03.2019 00:00:00 4,3 1,7 0,2
23.03.2019 23:00:00 4,0 1,8 0,6
23.03.2019 22:00:00 4,8 1,5 0,0
23.03.2019 21:00:00 3,9 2,2 0,4
23.03.2019 20:00:00 5,1 0,8 0,0
23.03.2019 19:00:00 5,2 1,2 0,0
23.03.2019 18:00:00 5,1 1,9 0,0
23.03.2019 17:00:00 6,5 1,1 0,0
23.03.2019 16:00:00 6,8 1,6 0,0
23.03.2019 15:00:00 6,6 2,2 0,0
23.03.2019 14:00:00 8,3 1,2 0,0
23.03.2019 13:00:00 8,6 1,0 0,0
23.03.2019 12:00:00 7,3 2,0 0,0
23.03.2019 11:00:00 6,8 1,0 0,0
23.03.2019 10:00:00 5,9 2,1 0,0
23.03.2019 09:00:00 3,4 1,2 0,4
23.03.2019 08:00:00 2,6 0,9 0,2
23.03.2019 07:00:00 2,7 -0,4 0,0
23.03.2019 06:00:00 2,8 0,2 0,0
23.03.2019 05:00:00 2,7 -0,1 0,0
23.03.2019 04:00:00 2,8 0,0 0,0
23.03.2019 03:00:00 2,3 -0,1 0,0
23.03.2019 02:00:00 2,2 -0,1 0,0
23.03.2019 01:00:00 2,3 0,3 0,2
23.03.2019 00:00:00 3,4 0,7 0,0
22.03.2019 23:00:00 3,1 0,4 0,2
22.03.2019 22:00:00 3,3 0,9 0,2
22.03.2019 21:00:00 4,6 1,5 0,2
22.03.2019 20:00:00 5,0 2,2 0,4
22.03.2019 19:00:00 4,8 2,3 0,2
22.03.2019 18:00:00 6,5 1,0 0,2
22.03.2019 17:00:00 6,5 2,0 1,0
22.03.2019 16:00:00 7,5 2,2 0,4
22.03.2019 15:00:00 8,8 4,9 0,0
22.03.2019 14:00:00 7,0 5,7 1,2
22.03.2019 13:00:00 7,3 5,8 1,4
22.03.2019 12:00:00 8,8 7,3 4,0
22.03.2019 11:00:00 9,2 7,5 3,2
22.03.2019 10:00:00 8,8 7,3 2,0
22.03.2019 09:00:00 9,5 6,8 0,2
22.03.2019 08:00:00 8,6 7,1 0,8
22.03.2019 07:00:00 8,4 6,9 0,4
22.03.2019 06:00:00 8,3 6,8 0,6
22.03.2019 05:00:00 8,2 7,1 0,2
22.03.2019 04:00:00 8,0 7,1 1,0
22.03.2019 03:00:00 7,7 6,7 0,2
22.03.2019 02:00:00 7,8 6,5 0,0
22.03.2019 01:00:00 8,1 6,5 0,0
22.03.2019 00:00:00 8,5 6,7 0,0
21.03.2019 23:00:00 9,1 7,4 0,0
21.03.2019 22:00:00 9,4 8,0 0,0
21.03.2019 21:00:00 9,8 8,6 0,4
21.03.2019 20:00:00 10,2 9,0 0,0
21.03.2019 19:00:00 10,1 9,2 0,0
21.03.2019 18:00:00 10,4 9,4 0,2
21.03.2019 17:00:00 10,3 9,4 0,4
21.03.2019 16:00:00 10,3 8,8 0,2
21.03.2019 15:00:00 10,9 7,2 0,0
21.03.2019 14:00:00 11,4 7,2 0,0
21.03.2019 13:00:00 11,0 7,7 0,0
21.03.2019 12:00:00 11,4 7,9 0,0
21.03.2019 11:00:00 10,4 8,0 0,0
21.03.2019 10:00:00 10,0 8,8 0,0
21.03.2019 09:00:00 9,8 8,6 0,2
21.03.2019 08:00:00 9,8 8,7 0,2
21.03.2019 07:00:00 9,8 8,8 0,6
21.03.2019 06:00:00 9,8 8,5 0,4
21.03.2019 05:00:00 10,1 8,4 0,4
21.03.2019 04:00:00 10,4 8,3 0,4
21.03.2019 03:00:00 10,2 8,2 0,8
21.03.2019 02:00:00 10,4 8,2 0,2
21.03.2019 01:00:00 10,8 8,2 0,4
21.03.2019 00:00:00 10,4 8,4 0,4
20.03.2019 23:00:00 10,6 8,5 0,2
20.03.2019 22:00:00 11,0 8,2 0,0
20.03.2019 21:00:00 11,7 7,6 0,0
20.03.2019 20:00:00 11,9 7,8 0,4
20.03.2019 19:00:00 11,3 10,0 0,8

tt = temperature
td = dewpoint
rr = precipitation

Next stations